ANZ584 NZCH-NZAA

Flight info

Callsign ANZ584
Flight time N/A
Altitude 37000
Route GLENN Y175 OMKUN Y655 POKOM Q277 DAVEE
Aircraft A320/M-SDE3FGHIRWY/LB1

Departure

Time 2026-04-28 17:13
Airport Christchurch International Airport (NZCH)

Arrival

Time N/A
Airport Auckland International Airport (NZAA)
Time Latitude Longitude Altitude Speed Heading
2026-04-28 16:51 -43.48839 172.53817 109 ft 0 kts 130°
2026-04-28 17:03 -43.48838 172.53815 109 ft 2 kts 130°
2026-04-28 17:04 -43.48806 172.53759 109 ft 4 kts 124°
2026-04-28 17:04 -43.48792 172.53727 108 ft 4 kts 117°
2026-04-28 17:05 -43.48784 172.53674 107 ft 3 kts 47°
2026-04-28 17:05 -43.48790 172.53666 106 ft 0 kts 40°
2026-04-28 17:09 -43.48783 172.53674 107 ft 3 kts 40°
2026-04-28 17:09 -43.48752 172.53710 109 ft 9 kts 40°
2026-04-28 17:10 -43.48693 172.53778 108 ft 13 kts 40°
2026-04-28 17:10 -43.48616 172.53867 108 ft 16 kts 40°
2026-04-28 17:10 -43.48523 172.53975 108 ft 19 kts 41°
2026-04-28 17:10 -43.48415 172.54112 107 ft 18 kts 40°
2026-04-28 17:11 -43.48308 172.54235 108 ft 22 kts 40°
2026-04-28 17:11 -43.48187 172.54374 110 ft 23 kts 40°
2026-04-28 17:11 -43.48056 172.54526 108 ft 26 kts 40°
2026-04-28 17:11 -43.47914 172.54691 103 ft 28 kts 40°
2026-04-28 17:12 -43.47780 172.54845 100 ft 26 kts 40°
2026-04-28 17:12 -43.47658 172.54914 98 ft 18 kts 348°
2026-04-28 17:12 -43.47540 172.54848 98 ft 18 kts 311°
2026-04-28 17:12 -43.47566 172.54749 98 ft 17 kts 219°
2026-04-28 17:13 -43.47837 172.54436 109 ft 85 kts 220°
2026-04-28 17:13 -43.48432 172.53746 109 ft 139 kts 220°
2026-04-28 17:13 -43.49251 172.52806 455 ft 154 kts 221°
2026-04-28 17:13 -43.50057 172.51840 1107 ft 154 kts 227°
2026-04-28 17:14 -43.50715 172.50655 1747 ft 156 kts 237°
2026-04-28 17:14 -43.51359 172.49336 2134 ft 177 kts 237°
2026-04-28 17:14 -43.52075 172.47854 2417 ft 199 kts 237°
2026-04-28 17:14 -43.52883 172.46203 2820 ft 215 kts 236°
2026-04-28 17:15 -43.53739 172.44471 3556 ft 220 kts 236°
2026-04-28 17:15 -43.54503 172.42625 4309 ft 225 kts 257°
2026-04-28 17:15 -43.54392 172.40517 5090 ft 225 kts 297°
2026-04-28 17:15 -43.53296 172.39024 5939 ft 228 kts 337°
2026-04-28 17:16 -43.51746 172.38714 6748 ft 230 kts 359°
2026-04-28 17:16 -43.50130 172.38714 7537 ft 233 kts 360°
2026-04-28 17:16 -43.48524 172.39160 8303 ft 240 kts 25°
2026-04-28 17:16 -43.47199 172.40580 8932 ft 255 kts 51°
2026-04-28 17:17 -43.46412 172.42885 9297 ft 280 kts 72°
2026-04-28 17:17 -43.45817 172.45534 9823 ft 296 kts 72°
2026-04-28 17:17 -43.45202 172.48315 10340 ft 313 kts 72°
2026-04-28 17:17 -43.44540 172.51290 10570 ft 336 kts 72°
2026-04-28 17:18 -43.43845 172.54385 11102 ft 345 kts 72°
2026-04-28 17:18 -43.42932 172.57461 11796 ft 349 kts 58°
2026-04-28 17:18 -43.41412 172.60061 12521 ft 350 kts 40°
2026-04-28 17:18 -43.39396 172.61927 13252 ft 350 kts 23°
2026-04-28 17:19 -43.37098 172.63036 13987 ft 351 kts 16°
2026-04-28 17:19 -43.34749 172.64036 14628 ft 355 kts 15°
2026-04-28 17:19 -43.32379 172.65043 15236 ft 358 kts 15°
2026-04-28 17:19 -43.29982 172.66065 15844 ft 362 kts 15°
2026-04-28 17:20 -43.27590 172.67089 16445 ft 366 kts 16°
2026-04-28 17:20 -43.25942 172.67799 16857 ft 368 kts 16°
2026-04-28 17:20 -43.22674 172.69214 17655 ft 373 kts 16°
2026-04-28 17:20 -43.20178 172.70297 18261 ft 377 kts 16°
2026-04-28 17:21 -43.17689 172.71371 18805 ft 381 kts 16°
2026-04-28 17:21 -43.15147 172.72458 19349 ft 384 kts 16°
2026-04-28 17:21 -43.12584 172.73550 19904 ft 387 kts 16°
2026-04-28 17:22 -43.07372 172.75766 21009 ft 393 kts 16°
2026-04-28 17:22 -43.04749 172.76884 21530 ft 396 kts 16°
2026-04-28 17:22 -43.02105 172.78011 22036 ft 399 kts 16°
2026-04-28 17:23 -42.96786 172.80278 23054 ft 405 kts 17°
2026-04-28 17:23 -42.94090 172.81430 23559 ft 407 kts 17°
2026-04-28 17:23 -42.91375 172.82589 24016 ft 410 kts 17°
2026-04-28 17:23 -42.88628 172.83758 24425 ft 413 kts 17°
2026-04-28 17:24 -42.85883 172.84998 24837 ft 416 kts 19°
2026-04-28 17:24 -42.83187 172.86349 25226 ft 419 kts 20°
2026-04-28 17:24 -42.80461 172.87793 25620 ft 422 kts 21°
2026-04-28 17:24 -42.77713 172.89271 25980 ft 426 kts 21°
2026-04-28 17:25 -42.74945 172.90756 26347 ft 429 kts 21°
2026-04-28 17:25 -42.69318 172.93716 27144 ft 434 kts 21°
2026-04-28 17:25 -42.66514 172.95160 27511 ft 437 kts 21°
2026-04-28 17:26 -42.63650 172.96627 27876 ft 440 kts 21°
2026-04-28 17:26 -42.60768 172.98106 28255 ft 443 kts 21°
2026-04-28 17:26 -42.57858 172.99596 28596 ft 447 kts 21°
2026-04-28 17:26 -42.54973 173.01069 29006 ft 449 kts 21°
2026-04-28 17:27 -42.52036 173.02574 29367 ft 452 kts 22°
2026-04-28 17:27 -42.49080 173.04089 29761 ft 454 kts 21°
2026-04-28 17:27 -42.46111 173.05608 30179 ft 456 kts 21°
2026-04-28 17:27 -42.43133 173.07128 30507 ft 459 kts 21°
2026-04-28 17:28 -42.40134 173.08663 30828 ft 461 kts 22°
2026-04-28 17:28 -42.34135 173.11722 31523 ft 463 kts 22°
2026-04-28 17:28 -42.31144 173.13243 32007 ft 461 kts 23°
2026-04-28 17:29 -42.28127 173.14781 32468 ft 460 kts 23°
2026-04-28 17:29 -42.25144 173.16303 32971 ft 457 kts 22°
2026-04-28 17:29 -42.22161 173.17823 33481 ft 455 kts 22°
2026-04-28 17:30 -42.16300 173.20789 34509 ft 450 kts 22°
2026-04-28 17:30 -42.10436 173.23743 35283 ft 449 kts 22°
2026-04-28 17:30 -42.07506 173.25219 35652 ft 448 kts 22°
2026-04-28 17:31 -42.04573 173.26699 36001 ft 448 kts 21°
2026-04-28 17:31 -41.98765 173.29628 36657 ft 448 kts 21°
2026-04-28 17:32 -41.92893 173.32582 37127 ft 451 kts 21°
2026-04-28 17:32 -41.89945 173.34063 37298 ft 452 kts 21°
2026-04-28 17:32 -41.84061 173.37021 37318 ft 454 kts 22°
2026-04-28 17:33 -41.78148 173.39980 37319 ft 453 kts 22°
2026-04-28 17:33 -41.73236 173.42432 37318 ft 452 kts 21°
2026-04-28 17:34 -41.66366 173.45849 37317 ft 453 kts 22°
2026-04-28 17:34 -41.60441 173.48793 37300 ft 453 kts 21°
2026-04-28 17:35 -41.54525 173.51725 37313 ft 453 kts 22°
2026-04-28 17:35 -41.48614 173.54645 37322 ft 453 kts 21°
2026-04-28 17:36 -41.42723 173.57549 37326 ft 453 kts 21°
2026-04-28 17:36 -41.36849 173.60449 37325 ft 452 kts 21°
2026-04-28 17:37 -41.30934 173.63368 37320 ft 452 kts 21°
2026-04-28 17:37 -41.25035 173.66259 37322 ft 452 kts 21°
2026-04-28 17:38 -41.19155 173.69132 37322 ft 452 kts 21°
2026-04-28 17:38 -41.13245 173.72020 37334 ft 452 kts 21°
2026-04-28 17:39 -41.07346 173.74904 37327 ft 451 kts 21°
2026-04-28 17:40 -40.98526 173.79199 37324 ft 451 kts 21°
2026-04-28 17:40 -40.92633 173.82056 37328 ft 450 kts 21°
2026-04-28 17:41 -40.86748 173.84915 37329 ft 450 kts 21°
2026-04-28 17:41 -40.80889 173.87756 37328 ft 449 kts 21°
2026-04-28 17:42 -40.75014 173.90597 37334 ft 449 kts 21°
2026-04-28 17:42 -40.69130 173.93428 37327 ft 449 kts 21°
2026-04-28 17:43 -40.63281 173.96245 37325 ft 449 kts 22°
2026-04-28 17:43 -40.57394 173.99069 37325 ft 449 kts 21°
2026-04-28 17:44 -40.51556 174.01864 37324 ft 449 kts 21°
2026-04-28 17:44 -40.45666 174.04682 37325 ft 449 kts 21°
2026-04-28 17:45 -40.39791 174.07491 37323 ft 449 kts 21°
2026-04-28 17:45 -40.33955 174.10279 37323 ft 449 kts 21°
2026-04-28 17:46 -40.28069 174.13078 37327 ft 449 kts 22°
2026-04-28 17:46 -40.22186 174.15879 37330 ft 450 kts 21°
2026-04-28 17:47 -40.16322 174.18658 37332 ft 450 kts 22°
2026-04-28 17:47 -40.10425 174.21450 37345 ft 450 kts 21°
2026-04-28 17:48 -40.04521 174.24232 37348 ft 450 kts 21°
2026-04-28 17:48 -39.98663 174.26992 37349 ft 450 kts 21°
2026-04-28 17:49 -39.92765 174.29767 37361 ft 450 kts 21°
2026-04-28 17:49 -39.86864 174.32539 37366 ft 450 kts 20°
2026-04-28 17:50 -39.80988 174.35292 37360 ft 451 kts 20°
2026-04-28 17:50 -39.75068 174.38062 37370 ft 451 kts 20°
2026-04-28 17:51 -39.70153 174.40364 37380 ft 452 kts 20°
2026-04-28 17:51 -39.63260 174.43582 37385 ft 451 kts 19°
2026-04-28 17:52 -39.58306 174.45888 37393 ft 451 kts 19°
2026-04-28 17:52 -39.49446 174.49919 37401 ft 450 kts 14°
2026-04-28 17:53 -39.43307 174.51283 37404 ft 450 kts
2026-04-28 17:53 -39.37110 174.52460 37405 ft 450 kts
2026-04-28 17:54 -39.30911 174.53655 37411 ft 450 kts
2026-04-28 17:54 -39.24702 174.54848 37414 ft 450 kts
2026-04-28 17:55 -39.18538 174.56029 37411 ft 450 kts
2026-04-28 17:55 -39.12332 174.57209 37416 ft 450 kts
2026-04-28 17:56 -39.06135 174.58392 37417 ft 450 kts
2026-04-28 17:56 -38.99980 174.59560 37417 ft 450 kts
2026-04-28 17:57 -38.93788 174.60733 37409 ft 449 kts
2026-04-28 17:57 -38.87588 174.61901 37412 ft 449 kts
2026-04-28 17:58 -38.81421 174.63061 37411 ft 449 kts
2026-04-28 17:58 -38.75229 174.64232 37402 ft 450 kts
2026-04-28 17:59 -38.69026 174.65403 37408 ft 449 kts
2026-04-28 17:59 -38.62859 174.66565 37405 ft 449 kts
2026-04-28 18:00 -38.56657 174.67731 37414 ft 449 kts
2026-04-28 18:00 -38.50468 174.68893 37409 ft 449 kts
2026-04-28 18:01 -38.44319 174.70042 37413 ft 449 kts
2026-04-28 18:01 -38.38119 174.71202 37419 ft 449 kts
2026-04-28 18:02 -38.31926 174.72360 37414 ft 449 kts
2026-04-28 18:02 -38.25775 174.73510 37411 ft 449 kts
2026-04-28 18:03 -38.19569 174.74658 37414 ft 449 kts
2026-04-28 18:03 -38.13403 174.75797 37405 ft 449 kts
2026-04-28 18:04 -38.07198 174.76945 37395 ft 449 kts
2026-04-28 18:04 -38.01057 174.78081 37405 ft 449 kts
2026-04-28 18:05 -37.95893 174.79037 37409 ft 449 kts
2026-04-28 18:05 -37.88689 174.80354 37410 ft 449 kts
2026-04-28 18:06 -37.82466 174.80707 37396 ft 447 kts 359°
2026-04-28 18:06 -37.76276 174.80786 37406 ft 446 kts 359°
2026-04-28 18:07 -37.70042 174.80860 37403 ft 446 kts 359°
2026-04-28 18:07 -37.63883 174.80935 37388 ft 437 kts 359°
2026-04-28 18:08 -37.60887 174.80974 37401 ft 423 kts 359°
2026-04-28 18:08 -37.57979 174.81071 37394 ft 412 kts
2026-04-28 18:08 -37.55219 174.81924 37400 ft 409 kts 22°
2026-04-28 18:08 -37.52766 174.83719 37394 ft 410 kts 38°
2026-04-28 18:09 -37.50807 174.86329 37390 ft 412 kts 55°
2026-04-28 18:09 -37.49515 174.89519 37392 ft 414 kts 72°
2026-04-28 18:09 -37.48978 174.93070 37393 ft 414 kts 89°
2026-04-28 18:09 -37.49251 174.96665 37397 ft 414 kts 106°
2026-04-28 18:10 -37.50323 175.00018 37395 ft 412 kts 123°
2026-04-28 18:10 -37.52096 175.02838 37396 ft 410 kts 140°
2026-04-28 18:10 -37.54403 175.04900 37389 ft 406 kts 156°
2026-04-28 18:10 -37.57013 175.06054 37380 ft 401 kts 172°
2026-04-28 18:11 -37.62550 175.06491 37380 ft 398 kts 182°
2026-04-28 18:11 -37.68100 175.06284 37381 ft 399 kts 184°
2026-04-28 18:12 -37.73561 175.05542 37383 ft 395 kts 200°
2026-04-28 18:12 -37.76049 175.04099 37383 ft 392 kts 215°
2026-04-28 18:12 -37.78124 175.01901 37380 ft 389 kts 230°
2026-04-28 18:13 -37.79645 174.99088 37378 ft 387 kts 246°
2026-04-28 18:13 -37.80444 174.96244 37369 ft 385 kts 259°